This is the latest recevied weather packets stored in our database for station/object IK1YPD-13. If no packets are shown the sender has not sent any weather packets the latest 10 day(s).
| Time | Temp. | Humidity | Pressure | Rain* | Wind** | Luminosity | Snow |
|---|---|---|---|---|---|---|---|
| 1787871150 | 27.78° C | 85% | 1013 hPa | - | - | - | - |
| 1787870250 | 27.78° C | 89% | 1013 hPa | - | - | - | - |
| 1787869350 | 27.22° C | 88% | 1014 hPa | - | - | - | - |
| 1787868450 | 26.67° C | 89% | 1014 hPa | - | - | - | - |
| 1787867550 | 26.11° C | 91% | 1014 hPa | - | - | - | - |
| 1787866650 | 26.11° C | 89% | 1014 hPa | - | - | - | - |
| 1787865750 | 26.11° C | 89% | 1014 hPa | - | - | - | - |
| 1787864850 | 26.11° C | 88% | 1014 hPa | - | - | - | - |
| 1787863950 | 26.67° C | 87% | 1013 hPa | - | - | - | - |
| 1787863050 | 26.67° C | 87% | 1013 hPa | - | - | - | - |
| 1787862150 | 26.67° C | 86% | 1013 hPa | - | - | - | - |
| 1787861250 | 26.11° C | 85% | 1013 hPa | - | - | - | - |
| 1787860350 | 26.67° C | 83% | 1013 hPa | - | - | - | - |
| 1787859450 | 26.67° C | 83% | 1013 hPa | - | - | - | - |
| 1787858549 | 26.67° C | 82% | 1012 hPa | - | - | - | - |
| 1787857649 | 26.67° C | 80% | 1012 hPa | - | - | - | - |
| 1787856749 | 27.22° C | 79% | 1012 hPa | - | - | - | - |
| 1787855849 | 27.78° C | 77% | 1012 hPa | - | - | - | - |
| 1787854949 | 27.78° C | 76% | 1012 hPa | - | - | - | - |
| 1787854049 | 28.33° C | 75% | 1012 hPa | - | - | - | - |
| 1787853149 | 28.89° C | 73% | 1012 hPa | - | - | - | - |
| 1787852249 | 29.44° C | 71% | 1012 hPa | - | - | - | - |
| 1787851349 | 29.44° C | 69% | 1012 hPa | - | - | - | - |
| 1787850449 | 29.44° C | 68% | 1012 hPa | - | - | - | - |
| 1787849549 | 29.44° C | 66% | 1012 hPa | - | - | - | - |
* Rain since midnight (hover to see other rain measurements)
** Current wind speed in m/s (hover to see current wind gust speed)